Location: T�bingen+AIT
(48.5342°N, 9.0700°E)
Time: 22:35:00
(UTC+01:00)

Cosmos 1825 Rocket - Pass Details

Date: 14 September 2017
Orbit: 604 x 631 km, 82.5° (Epoch: 18 November)

Event Time Altitude Azimuth Distance (km) Brightness Sun altitude
Rises 20:30:49 0° 353° (N) 2,888 7.3 -9.4°
Reaches altitude 10° 20:33:04 10° 357° (N) 1,982 6.4 -9.7°
Maximum altitude 20:37:25 61° 78° (ENE) 704 3.6 -10.4°
Drops below altitude 10° 20:41:46 10° 159° (SSE) 1,983 5.8 -11.1°
Enters shadow 20:43:51 - 163° (SSE) 2,825 6.6 -11.4°
